Temp
15 14 16 16 15 15 14 14 14 13 13 12 12 12 11 11 11 11 10 10 9 9 9 8 8 7 7 6 7 6 6 6 6 5 5 4 4 4 4 4 5 5 5
16 15 16 16 15 15 14 14 13 13 13 13 12 12 12 11 11 11 10 10 9 9 8 8 8 7 6 6 6 6 6 6 6 5 4 4 4 4 4 4 3 4 4
16 16 16 16 16 15 15 14 14 13 13 13 13 13 12 12 11 11 11 10 10 9 9 8 8 7 6 6 5 6 5 5 5 5 5 5 4 3 3 3 4 4 4
17 16 16 16 16 16 15 14 14 14 13 13 13 13 13 12 12 12 11 11 10 9 8 8 7 6 6 5 5 5 5 5 5 5 5 5 4 4 4 4 3 3 3
17 16 17 16 16 16 15 15 14 14 13 13 13 13 13 13 12 12 11 11 10 10 9 8 7 6 6 6 5 5 5 5 4 4 4 4 4 4 3 3 3 3 3
17 17 16 16 16 16 16 15 15 14 14 14 13 13 13 13 12 11 11 10 10 11 10 8 6 6 6 6 5 5 4 4 4 3 3 4 4 4 3 3 3 2 2
18 17 16 16 16 16 16 16 15 14 14 14 14 14 13 13 12 11 11 11 11 11 10 8 6 6 5 5 5 5 5 5 4 4 3 4 4 3 3 3 3 2 2
18 17 17 16 16 16 15 15 15 15 15 14 14 14 13 13 12 11 11 11 12 11 10 9 7 6 5 5 5 5 5 5 5 4 3 3 3 2 3 2 3 3 3
18 18 17 16 16 16 16 15 15 15 15 15 14 14 13 12 12 12 11 11 11 10 10 9 8 6 6 5 5 4 5 5 4 3 3 3 2 1 2 2 2 2 2
17 18 18 18 16 16 15 15 15 15 15 14 14 13 12 11 11 11 12 11 11 11 10 9 8 7 6 5 4 4 5 4 3 3 3 2 2 1 2 2 2 2 1
17 17 17 18 17 16 15 14 15 14 14 13 12 12 10 9 10 11 12 11 10 10 9 8 7 6 6 5 5 4 4 3 3 3 2 2 2 2 2 2 2 1 1
17 17 17 17 17 17 17 15 14 13 12 13 12 11 9 10 10 10 10 10 9 8 8 8 7 6 6 5 4 4 4 3 2 2 3 2 2 2 2 1 1 0 1
17 17 17 17 17 17 17 16 13 12 12 12 12 12 10 10 9 9 9 9 8 8 7 7 6 5 6 5 4 3 3 2 2 2 2 2 2 1 1 1 0 0 0
17 17 17 17 17 17 16 16 13 12 12 11 10 10 10 8 9 9 9 8 8 7 6 6 5 5 4 4 4 3 3 3 3 3 2 2 2 1 0 0 0 1 1
16 16 16 16 15 14 14 14 14 11 10 9 10 10 9 9 10 9 7 7 7 7 6 6 5 4 5 4 4 3 3 3 3 3 2 2 1 1 0 1 1 0 0
15 15 13 13 12 12 11 10 10 9 8 8 10 9 10 11 10 8 7 7 6 6 5 5 5 4 4 4 3 3 3 3 2 2 2 2 1 1 1 1 0 -0 -0
12 12 12 13 11 10 9 11 6 7 9 8 9 10 11 9 9 7 6 6 5 5 4 4 4 4 4 3 3 3 2 2 2 2 2 2 1 1 1 0 -0 -0 -0
10 10 9 10 10 10 10 10 6 9 9 9 10 9 8 7 7 7 6 5 5 5 4 4 4 4 3 3 3 3 3 2 2 2 2 2 1 1 0 -0 -0 -1 -1
8 8 9 8 9 9 11 9 7 9 9 8 8 7 8 6 6 6 5 5 5 4 4 4 4 3 3 2 2 3 2 2 2 2 2 1 1 0 0 -0 -1 -1 -1
7 7 7 8 8 8 7 7 8 7 6 7 8 8 7 5 5 5 4 4 4 4 4 3 3 3 3 2 2 2 2 2 2 2 1 1 1 1 0 -0 -1 -1 -2
6 6 6 6 7 7 7 7 7 6 6 7 7 5 5 4 4 4 4 4 4 4 3 3 3 2 2 2 2 2 2 2 2 2 1 1 1 1 -0 -1 -1 -2 -2
7 5 5 5 6 6 6 6 6 5 5 5 4 4 4 4 4 4 4 3 3 3 2 2 2 2 2 2 2 2 2 2 2 2 2 1 1 0 -0 -1 -1 -2 -2
5 5 5 4 4 4 4 4 4 4 3 3 4 3 2 3 3 3 3 3 3 3 3 3 2 2 3 3 2 2 2 2 2 2 1 1 1 -0 -0 -1 -1 -1 -2
4 3 3 4 4 4 3 3 3 2 3 3 2 2 3 2 2 2 1 1 2 2 1 1 2 2 3 2 2 2 2 2 2 2 1 1 0 -0 -1 -1 -1 -1 -1
3 3 4 4 3 3 3 3 3 2 3 2 2 2 1 2 2 1 1 0 -0 0 0 -0 1 2 2 2 2 1 2 2 2 1 1 1 0 -0 -0 -1 -1 -1 -1
3 3 3 2 2 2 2 2 2 2 2 2 2 1 -0 0 0 0 1 0 -1 -1 -1 -0 -0 0 -0 -0 0 1 1 1 1 1 1 1 0 -0 -1 -1 -1 -1 -1
Height
3161 3164 3166 3169 3173 3176 3178 3182 3184 3186 3188 3190 3192 3194 3196 3197 3198 3198 3198 3197 3198 3197 3195 3194 3191 3190 3188 3187 3186 3186 3185 3182 3180 3179 3178 3177 3176 3175 3174 3173 3171 3169 3167
3156 3160 3162 3165 3168 3171 3174 3177 3180 3182 3184 3186 3188 3190 3192 3193 3193 3194 3193 3193 3193 3192 3191 3191 3189 3187 3185 3183 3182 3182 3181 3180 3178 3176 3175 3174 3173 3171 3170 3167 3166 3165 3164
3151 3154 3157 3159 3162 3167 3170 3173 3175 3178 3180 3181 3183 3185 3186 3188 3189 3189 3188 3187 3187 3187 3186 3184 3184 3182 3181 3179 3178 3178 3177 3176 3175 3174 3172 3170 3168 3165 3163 3161 3159 3158 3157
3146 3149 3151 3154 3157 3162 3166 3168 3171 3173 3174 3176 3178 3180 3181 3182 3182 3183 3182 3182 3181 3180 3180 3178 3178 3177 3175 3174 3173 3172 3171 3170 3169 3168 3166 3164 3161 3157 3153 3150 3149 3148 3148
3140 3142 3144 3148 3153 3156 3158 3161 3164 3167 3169 3171 3172 3173 3174 3175 3176 3177 3176 3175 3175 3173 3173 3172 3172 3171 3169 3169 3167 3166 3166 3165 3163 3161 3160 3158 3155 3150 3146 3143 3141 3141 3141
3134 3136 3139 3142 3145 3148 3152 3155 3157 3160 3162 3163 3165 3166 3168 3169 3170 3170 3170 3169 3168 3167 3166 3165 3165 3165 3163 3162 3160 3159 3158 3158 3157 3155 3154 3151 3149 3145 3141 3137 3134 3132 3130
3125 3129 3132 3135 3137 3140 3144 3147 3150 3152 3155 3155 3157 3159 3161 3162 3162 3162 3162 3162 3163 3162 3158 3157 3157 3158 3157 3155 3153 3153 3151 3150 3148 3147 3146 3145 3142 3139 3135 3132 3128 3124 3123
3117 3120 3124 3127 3130 3132 3135 3138 3142 3145 3146 3148 3149 3152 3153 3153 3154 3155 3156 3157 3155 3153 3151 3149 3149 3150 3150 3149 3146 3146 3145 3142 3140 3138 3137 3137 3134 3131 3127 3124 3122 3118 3115
3109 3112 3115 3118 3121 3123 3126 3130 3133 3135 3137 3139 3141 3143 3144 3145 3145 3147 3148 3149 3147 3146 3145 3143 3142 3141 3142 3141 3139 3138 3136 3134 3129 3129 3130 3128 3126 3123 3120 3115 3113 3109 3106
3102 3105 3108 3109 3112 3115 3118 3120 3123 3126 3129 3131 3132 3133 3137 3140 3141 3138 3136 3139 3141 3139 3137 3136 3135 3133 3133 3132 3132 3130 3126 3128 3122 3125 3124 3121 3119 3116 3112 3108 3104 3100 3098
3097 3098 3099 3101 3103 3106 3109 3111 3113 3116 3120 3123 3123 3124 3123 3125 3130 3132 3131 3133 3131 3128 3127 3127 3127 3125 3124 3125 3125 3123 3122 3119 3119 3119 3117 3114 3111 3107 3104 3100 3096 3092 3089
3087 3089 3091 3093 3093 3095 3097 3099 3103 3107 3110 3109 3110 3115 3115 3121 3126 3126 3127 3126 3125 3122 3121 3119 3119 3118 3118 3117 3117 3117 3115 3114 3113 3112 3109 3106 3102 3099 3095 3091 3088 3085 3081
3075 3077 3080 3081 3083 3085 3086 3088 3092 3096 3097 3097 3100 3102 3111 3118 3117 3116 3122 3121 3118 3117 3115 3113 3112 3111 3111 3110 3110 3110 3109 3108 3106 3104 3101 3098 3094 3089 3086 3083 3081 3078 3075
3061 3064 3067 3069 3071 3074 3075 3075 3078 3081 3084 3084 3084 3096 3103 3104 3106 3108 3107 3110 3111 3109 3107 3105 3106 3105 3104 3103 3104 3103 3102 3101 3099 3096 3093 3091 3087 3083 3081 3078 3075 3072 3069
3048 3050 3051 3055 3057 3059 3060 3060 3062 3071 3074 3056 3078 3088 3090 3094 3097 3097 3100 3102 3102 3101 3100 3099 3098 3098 3098 3097 3097 3097 3096 3093 3091 3089 3086 3084 3081 3078 3075 3071 3068 3065 3061
3039 3039 3041 3043 3042 3045 3044 3049 3058 3061 3063 3074 3082 3083 3084 3084 3085 3088 3090 3094 3094 3095 3094 3093 3092 3093 3092 3092 3092 3093 3091 3090 3086 3083 3080 3078 3075 3072 3068 3065 3062 3058 3054
3028 3031 3032 3032 3030 3032 3015 3039 3022 3053 3054 3071 3074 3077 3078 3078 3077 3082 3083 3084 3088 3088 3088 3088 3086 3086 3087 3087 3087 3086 3084 3082 3081 3078 3075 3072 3069 3066 3063 3060 3056 3053 3049
3021 3015 3017 3027 3030 3030 3030 3029 3056 3055 3058 3059 3064 3068 3072 3076 3073 3074 3075 3076 3079 3080 3081 3082 3082 3082 3081 3081 3081 3079 3077 3075 3073 3071 3068 3066 3063 3060 3057 3054 3051 3048 3045
3014 3008 3009 3025 3028 3029 3031 3031 3050 3050 3053 3056 3058 3060 3063 3071 3070 3069 3069 3071 3074 3075 3074 3076 3077 3075 3075 3074 3073 3072 3070 3068 3067 3064 3062 3059 3056 3054 3051 3049 3047 3044 3041
3015 3019 3023 3026 3027 3029 3034 3039 3046 3051 3053 3053 3052 3058 3060 3063 3065 3066 3067 3068 3069 3069 3069 3070 3071 3070 3069 3068 3067 3067 3064 3063 3061 3059 3057 3054 3051 3050 3048 3046 3043 3040 3037
3018 3022 3027 3028 3028 3031 3036 3039 3044 3047 3048 3048 3050 3053 3055 3059 3061 3063 3063 3062 3063 3064 3065 3065 3064 3064 3063 3062 3061 3061 3060 3059 3057 3055 3053 3051 3049 3047 3044 3042 3040 3037 3033
3015 3020 3023 3025 3026 3029 3034 3038 3040 3041 3044 3046 3047 3050 3051 3053 3056 3057 3057 3056 3058 3060 3061 3061 3058 3057 3058 3057 3057 3056 3055 3054 3053 3050 3048 3047 3045 3043 3041 3039 3036 3034 3030
3018 3019 3021 3023 3023 3026 3029 3032 3034 3036 3041 3044 3044 3046 3049 3049 3049 3052 3053 3054 3056 3055 3056 3056 3055 3051 3052 3051 3051 3052 3051 3050 3048 3046 3044 3043 3041 3040 3038 3036 3033 3031 3028
3015 3015 3017 3019 3022 3024 3026 3029 3031 3033 3035 3038 3041 3044 3046 3046 3046 3048 3050 3048 3049 3050 3049 3049 3048 3046 3046 3047 3047 3046 3046 3045 3043 3042 3041 3039 3038 3037 3035 3033 3031 3028 3026
3009 3012 3013 3014 3016 3020 3021 3023 3026 3032 3034 3036 3038 3038 3040 3042 3042 3043 3045 3045 3045 3045 3046 3046 3044 3043 3042 3041 3042 3041 3041 3040 3039 3038 3037 3036 3035 3034 3033 3031 3029 3027 3024
3005 3008 3008 3011 3014 3015 3016 3021 3026 3027 3028 3031 3032 3032 3035 3036 3037 3040 3040 3040 3039 3041 3040 3040 3042 3039 3038 3037 3037 3037 3036 3035 3034 3034 3033 3033 3032 3031 3030 3029 3027 3025 3022
Wind_Speed
21 20 20 22 24 23 22 21 25 22 19 19 16 16 16 17 17 16 17 19 18 18 19 19 18 16 16 15 12 12 11 13 15 10 11 12 17 22 26 26 25 26 25
22 22 22 24 25 24 22 24 24 22 19 18 16 13 15 17 18 19 21 22 23 23 21 19 19 22 19 14 13 13 14 15 13 10 12 14 18 20 22 26 26 27 27
26 26 26 27 28 26 25 25 23 23 20 17 15 14 16 19 21 22 24 26 28 27 25 23 21 22 24 17 14 14 16 16 14 12 14 17 21 21 25 29 30 30 28
22 28 28 28 28 29 27 27 25 24 20 17 16 19 22 24 24 25 25 28 30 29 27 25 22 23 22 21 19 16 19 20 19 18 19 18 23 26 31 31 31 29 29
21 19 29 29 28 31 33 30 28 28 25 24 25 26 27 26 25 24 24 27 29 29 28 27 25 25 19 24 17 20 21 23 23 23 22 23 26 27 30 28 27 27 31
24 24 18 27 32 32 34 35 33 32 30 29 30 32 29 26 25 24 26 26 27 29 28 27 27 26 22 26 20 23 21 26 27 25 24 27 27 29 29 29 28 29 32
24 26 26 22 27 34 33 36 36 34 34 33 33 31 30 28 26 25 23 23 24 29 28 28 28 28 24 24 23 22 27 29 30 29 28 27 32 31 30 28 29 30 32
27 28 29 28 26 30 36 35 36 38 39 37 35 34 33 31 27 22 21 22 23 26 31 30 29 29 26 23 22 26 26 31 31 33 30 31 32 29 30 31 31 32 33
31 26 29 29 31 32 32 37 37 38 39 40 39 37 35 30 23 18 16 28 30 31 33 31 30 27 26 25 27 28 33 35 29 27 32 32 31 32 31 34 32 35 36
22 19 19 23 33 35 33 33 39 39 37 37 37 33 27 20 17 18 23 24 29 29 30 26 23 22 24 22 25 29 32 31 24 25 27 34 34 30 32 34 35 35 35
26 24 23 24 22 32 35 36 36 40 40 39 35 30 24 26 22 23 24 22 28 30 27 22 20 21 21 25 24 27 29 20 23 28 31 30 33 34 35 36 36 35 35
31 34 33 33 27 28 35 40 39 35 36 39 33 28 24 27 20 16 17 27 31 26 25 22 21 21 21 21 24 24 24 27 28 29 31 32 35 34 32 30 29 30 32
41 39 39 40 40 37 38 39 39 38 39 38 31 31 26 16 10 15 28 38 29 24 25 21 19 20 19 18 21 24 25 25 30 30 32 31 29 25 24 24 26 28 29
46 47 47 46 42 44 38 35 38 43 41 40 29 27 21 13 17 22 32 31 27 25 22 21 19 18 17 20 23 24 25 27 29 30 26 25 23 19 20 24 26 26 27
43 47 50 48 43 44 44 39 36 38 35 30 23 22 16 14 29 32 24 29 25 22 19 19 18 18 19 20 21 22 25 27 28 22 21 21 20 20 21 23 25 25 27
36 37 39 39 42 42 45 35 31 32 27 17 15 12 19 31 33 27 25 25 21 19 17 16 17 18 19 19 21 24 23 23 19 19 20 22 23 24 26 25 26 27 27
35 36 39 40 41 36 20 37 10 32 18 20 12 17 30 30 26 26 22 19 18 15 16 16 17 19 20 20 19 17 18 19 19 20 21 23 23 24 25 25 25 25 23
38 38 31 31 27 23 22 17 26 18 13 14 19 22 25 25 21 16 16 15 14 15 17 18 18 18 17 17 16 16 18 19 20 21 23 24 24 23 23 22 22 21 21
29 26 24 29 32 24 25 22 20 15 15 17 18 19 22 19 15 13 12 13 15 16 18 19 18 17 17 17 17 19 19 19 21 23 25 24 22 20 20 19 18 18 20
21 20 19 17 16 15 14 18 25 18 17 16 18 20 17 13 13 12 14 17 17 16 18 20 18 18 17 17 19 19 18 19 20 22 22 20 19 19 16 15 16 18 19
15 7 11 16 18 17 15 13 15 15 15 18 17 13 14 14 13 15 17 17 15 17 19 18 17 18 18 19 20 19 19 17 17 17 16 16 16 14 13 15 16 18 20
11 17 16 13 15 15 13 11 12 11 13 14 8 9 12 13 14 13 15 14 16 18 18 17 17 19 20 19 19 17 16 15 16 15 14 14 13 12 13 14 15 17 18
8 11 13 16 12 11 9 6 7 10 12 14 11 12 10 15 14 12 12 14 16 16 14 14 14 16 18 16 16 14 13 12 13 13 13 13 12 11 12 13 15 16 16
15 15 24 27 22 20 21 20 15 9 13 13 15 14 15 14 15 16 14 16 15 12 15 16 15 15 15 14 14 14 13 11 11 11 12 12 11 10 11 13 14 14 14
16 19 31 29 25 19 15 11 8 12 15 19 20 19 16 21 24 18 16 14 15 19 17 13 13 12 12 13 13 12 12 11 11 11 11 11 10 10 11 12 12 12 13
13 15 6 14 9 7 5 11 17 18 18 17 18 18 13 16 15 15 14 19 15 16 16 9 9 10 8 9 14 13 12 12 11 11 11 12 11 11 11 11 11 11 11
Wind_Direction
214 225 227 221 217 218 220 213 197 199 205 219 230 239 248 263 275 289 297 302 309 314 323 332 328 328 320 305 302 314 315 325 319 297 292 294 299 297 289 287 292 296 294
216 222 226 220 217 217 215 208 200 199 204 217 224 235 248 261 276 294 296 302 306 308 308 315 322 319 323 308 295 301 299 312 319 306 298 300 298 287 283 286 289 289 292
219 221 224 220 219 213 210 206 211 217 221 224 234 249 264 273 283 290 295 298 301 300 301 307 314 310 312 312 301 285 290 284 300 305 297 303 301 300 283 271 271 277 286
224 224 228 225 222 217 213 214 216 222 228 234 241 255 267 274 280 283 289 292 294 296 294 297 300 304 303 300 305 284 279 280 287 298 302 312 313 306 306 294 273 274 279
223 227 229 229 226 221 220 219 219 225 233 239 250 260 268 273 275 279 283 286 289 291 289 289 290 297 293 293 293 284 271 274 279 285 297 308 311 306 308 306 292 277 278
221 231 233 228 229 227 225 224 228 233 236 241 251 260 266 270 274 278 277 279 284 288 287 282 280 284 288 289 282 285 261 266 269 275 287 295 301 303 300 300 301 292 286
240 240 235 237 232 231 231 232 230 233 241 247 254 260 264 268 271 271 266 271 281 284 282 277 276 281 282 281 271 277 273 265 266 271 279 291 295 298 294 293 290 288 290
234 240 242 237 240 235 231 234 236 236 240 247 253 258 262 265 265 257 263 276 271 278 278 277 275 277 275 279 277 278 282 272 272 271 281 288 294 293 294 291 290 290 291
230 235 235 234 236 237 236 230 234 237 241 246 252 257 260 261 251 259 271 278 272 272 272 273 273 268 269 269 272 279 277 288 261 269 282 290 294 294 290 289 293 293 298
227 235 242 242 233 235 238 238 233 237 241 246 250 254 256 246 227 231 277 268 276 280 277 274 275 276 274 275 268 270 274 281 268 283 288 290 291 289 290 294 296 295 294
246 245 237 237 248 241 238 240 239 237 242 248 254 253 245 234 224 258 281 274 281 284 281 284 286 281 278 276 273 273 270 272 282 283 293 297 291 290 295 294 293 294 295
252 253 251 251 249 251 245 241 241 243 241 242 246 250 238 217 260 271 287 289 283 279 280 280 276 275 274 273 267 265 269 280 289 297 296 294 292 293 291 290 289 291 293
252 250 251 247 255 256 257 248 248 247 241 241 240 261 223 247 288 302 305 292 274 276 281 282 279 279 274 267 263 267 282 292 296 298 297 294 300 297 290 288 288 287 289
249 251 253 253 254 254 249 255 248 248 239 238 229 218 217 237 305 304 284 275 271 275 276 277 278 276 267 268 273 281 289 293 295 298 298 306 309 298 297 292 290 293 294
248 249 245 246 244 242 244 244 243 236 239 217 202 210 235 281 297 287 261 264 272 271 272 272 270 270 273 275 281 289 289 290 296 299 305 313 308 301 295 295 300 301 302
248 244 239 238 241 243 243 236 231 217 190 192 221 247 292 297 295 264 257 269 271 267 263 264 271 274 279 286 289 289 290 296 300 302 304 304 303 302 303 308 308 306 305
237 234 234 239 240 241 252 246 186 201 177 193 246 289 286 278 259 254 262 256 253 258 263 270 275 282 287 288 284 287 294 297 300 298 297 299 303 302 304 305 304 303 303
235 245 227 226 230 209 214 182 209 193 201 238 262 281 269 251 253 243 245 246 251 261 270 279 283 284 283 283 286 290 293 298 298 300 301 306 307 308 308 306 305 303 302
249 236 199 190 182 197 247 203 217 245 259 255 251 246 249 238 236 243 238 245 260 271 280 282 282 281 280 282 290 297 302 300 301 302 304 307 308 307 305 305 303 305 311
163 173 182 185 179 178 190 198 215 222 220 225 253 244 237 237 239 237 246 258 265 277 280 281 278 270 272 284 295 297 295 296 301 302 303 301 302 302 302 302 309 315 315
155 174 167 175 187 193 207 230 224 218 220 226 223 221 224 230 240 250 254 264 270 267 266 268 273 275 280 285 286 285 290 296 298 294 291 294 297 302 304 310 318 320 319
246 193 189 182 187 195 208 224 235 241 219 213 229 224 227 236 241 258 256 261 266 270 267 271 276 277 280 280 278 280 284 290 286 284 292 299 302 304 310 317 322 321 324
256 250 222 208 213 221 220 222 196 184 207 225 240 237 258 254 270 293 261 261 252 253 268 273 283 272 273 273 274 276 276 280 285 292 297 298 303 310 314 319 321 325 329
257 256 223 214 219 204 217 244 220 230 240 236 226 241 258 263 279 287 283 293 276 274 303 300 290 265 264 267 273 278 285 290 291 294 298 300 305 307 311 318 321 330 330
230 236 225 217 227 202 208 200 222 256 251 259 259 235 235 259 271 274 272 278 285 290 299 306 293 264 263 270 272 274 281 286 291 293 295 299 300 299 306 313 320 326 327
226 227 177 175 178 191 197 245 250 255 267 255 247 257 252 256 263 260 261 270 280 298 301 271 275 236 248 275 285 288 284 284 287 289 292 294 293 295 300 307 312 319 320